Location: Angwan Shehu
(11.2514°N, 7.4613°E)
Time: 23:18:24
(UTC+00:00)

Vanguard 3 - Pass Details

Date: 05 August 2021
Orbit: 510 x 3260 km, 33.3° (Epoch: 18 September)

Event Time Altitude Azimuth Distance (km) Brightness Sun altitude
Rises 19:42:21 0° 304° (NW) 6,253 13.0 -25.8°
Reaches altitude 10° 19:46:36 10° 312° (NW) 5,545 12.3 -26.7°
Maximum altitude 20:03:28 42° 18° (NNE) 4,110 10.6 -30.5°
Enters shadow 20:14:57 24° 70° (ENE) 4,941 10.7 -32.9°
